Wind_Speed
26 29 28 25 25 24 22 19 16 15 15 15 16 17 17 16 15 14 15 16 16 17 18 16 15 14 13 13 14 17 20 21 22 22 23 25 26 27 27 26 24 20
25 27 26 25 25 24 21 19 17 16 16 16 17 17 17 16 15 15 16 18 18 18 17 15 14 13 13 14 16 20 22 23 24 24 26 27 27 27 27 27 24 19
25 25 25 26 26 24 22 19 17 16 17 17 17 17 17 17 16 16 17 18 19 18 16 15 14 13 13 15 19 22 24 25 26 27 28 27 26 25 25 24 22 18
25 24 25 26 26 24 22 20 18 17 18 18 18 17 17 17 17 18 18 18 19 18 16 15 14 13 15 17 20 24 26 27 27 27 27 25 24 24 22 20 19 17
23 23 24 25 25 24 22 20 19 18 18 18 18 17 16 17 18 19 19 19 19 18 16 15 14 14 16 19 23 26 28 28 27 27 25 23 23 22 19 17 17 17
22 22 25 25 25 24 21 19 19 18 17 17 17 17 17 18 19 19 20 20 19 17 16 15 14 16 19 23 26 28 28 27 26 25 23 22 21 20 18 16 16 17
23 24 26 26 26 23 20 19 19 18 17 16 16 18 19 19 20 21 21 20 18 17 16 15 16 19 22 25 28 29 28 26 24 22 21 19 18 19 18 17 16 15
26 27 28 28 26 22 21 21 20 19 18 17 18 19 20 20 21 22 21 19 18 17 16 16 19 23 25 28 29 29 28 26 23 21 20 18 17 17 18 17 16 15
30 30 30 29 26 23 23 22 21 21 20 19 20 21 21 21 21 21 20 19 18 17 18 19 22 25 27 28 29 27 26 25 22 20 19 17 17 16 16 15 15 14
33 33 31 29 27 26 25 23 22 23 21 20 22 23 22 22 22 21 20 19 18 19 20 22 25 27 28 28 27 26 24 23 21 20 18 17 16 16 15 14 13 13
33 33 32 30 29 27 25 24 24 24 22 21 22 23 24 23 23 21 20 19 19 20 22 24 26 28 29 28 27 25 24 22 20 19 18 17 17 16 15 14 14 13
33 33 32 31 29 27 26 25 25 24 23 22 23 24 25 24 23 22 20 19 20 21 23 26 28 28 28 27 26 25 23 22 20 19 18 17 16 16 15 15 15 14
34 34 32 31 29 27 26 26 25 24 24 24 24 25 26 25 24 22 20 20 21 23 25 27 28 28 27 26 25 23 22 21 20 19 18 17 16 15 15 15 15 14
35 33 32 30 29 28 28 27 27 25 25 24 25 25 26 25 24 22 21 21 22 24 26 28 28 28 27 26 24 22 20 19 18 17 16 16 15 14 14 14 14 14
34 33 31 30 29 29 29 29 28 26 25 24 25 26 26 26 24 22 22 23 24 25 27 28 28 27 26 25 23 21 19 18 16 15 14 13 13 12 12 13 13 13
34 33 32 31 31 30 30 30 28 27 26 25 26 27 27 26 24 22 22 24 25 26 27 27 27 26 24 23 22 21 19 17 16 14 12 11 11 11 11 11 11 12
34 33 32 31 31 31 30 29 28 27 26 26 27 28 27 26 24 23 24 25 26 26 26 26 25 24 23 21 20 19 18 17 14 13 12 11 10 10 9 9 10 11
33 33 32 32 31 30 30 29 27 26 26 27 28 29 28 27 25 24 26 27 27 26 25 25 24 23 22 20 19 17 16 15 13 11 11 10 10 9 8 8 9 10
33 33 32 31 30 30 29 28 26 26 27 28 29 30 29 27 26 26 27 27 27 26 25 24 24 23 21 20 18 17 15 13 11 10 10 9 9 9 8 8 9 9
33 32 31 30 30 29 28 26 26 26 27 28 30 30 29 28 27 27 28 28 27 27 25 24 24 22 20 19 18 16 14 12 11 10 10 9 8 8 7 8 9 9
32 31 30 30 29 28 27 26 25 26 28 29 30 30 30 29 29 29 29 28 27 27 26 24 23 21 20 19 18 17 14 12 10 9 9 8 7 6 6 7 8 8
32 31 30 30 29 27 26 25 25 27 28 30 31 31 30 30 30 29 28 27 26 25 25 24 22 20 19 18 18 17 14 11 9 8 8 7 7 6 5 5 6 7
31 30 30 31 29 27 26 25 25 27 28 29 31 31 31 31 30 29 27 26 25 24 23 23 21 20 19 18 17 16 14 11 9 7 7 7 6 5 4 3 4 6
30 31 32 32 30 28 27 26 26 27 27 28 30 30 30 30 30 29 26 24 24 23 22 22 21 20 18 17 16 14 13 11 9 7 7 6 5 4 3 2 2 4
32 33 33 32 31 29 27 26 27 27 27 27 28 29 29 29 29 29 27 24 23 22 21 20 21 20 19 17 15 14 12 11 9 7 7 6 5 4 3 2 1 4
33 34 33 32 32 30 27 26 26 26 25 25 28 31 31 31 30 29 27 25 23 22 20 20 20 21 20 19 16 15 13 11 9 7 7 6 6 5 4 3 2 3
Wind_Direction
173 171 168 164 164 163 160 157 152 148 144 144 146 144 141 137 136 136 133 132 132 130 128 124 118 111 102 98 101 104 104 102 102 101 99 98 96 94 92 88 85 81
171 170 168 166 165 162 158 154 149 146 144 144 146 142 140 139 139 140 136 135 134 131 130 125 117 110 102 105 109 109 108 106 105 105 103 101 97 94 91 89 87 83
170 170 169 168 165 160 155 150 146 145 142 143 144 142 142 142 143 142 139 139 136 133 131 125 117 110 106 112 115 113 111 110 109 108 105 101 98 95 92 90 88 84
168 169 170 169 165 160 154 148 145 144 141 141 144 145 146 146 146 144 143 142 139 136 132 126 118 113 113 117 119 116 115 113 111 109 105 101 99 97 93 91 87 83
167 169 170 168 163 158 153 147 145 143 141 141 144 147 150 151 150 148 146 145 142 139 134 127 120 117 121 123 121 119 117 115 112 109 105 102 100 98 95 91 86 82
166 171 172 168 162 158 153 148 147 144 142 142 145 149 153 154 153 151 150 147 145 142 135 129 125 124 127 127 124 121 118 116 113 109 105 103 101 99 96 91 85 81
169 174 173 167 162 159 153 150 150 147 145 146 147 152 155 156 156 153 152 149 147 144 137 132 130 131 132 129 126 123 120 116 113 109 106 104 102 98 94 90 85 80
174 175 172 167 162 159 156 155 154 151 151 151 151 154 157 158 157 154 153 152 149 144 139 136 135 135 134 131 127 124 121 117 114 111 108 105 101 97 93 90 85 80
172 172 170 167 162 161 160 158 157 156 157 157 156 158 159 160 158 156 155 155 150 146 141 139 139 138 136 132 128 125 121 118 116 112 109 104 100 96 92 88 83 79
169 169 168 166 164 165 163 161 161 161 161 161 159 160 161 161 160 158 158 156 151 147 144 142 142 141 137 132 129 125 122 119 116 112 108 104 99 96 92 86 82 77
168 166 167 167 167 166 164 163 164 163 164 164 162 162 163 162 160 160 160 157 152 148 146 145 145 142 138 133 130 127 124 120 116 112 108 104 100 96 91 85 80 75
167 168 169 168 167 166 165 166 166 165 166 165 164 165 165 163 162 161 160 157 152 149 148 147 145 142 138 134 131 128 124 121 117 113 108 104 100 94 88 83 77 73
169 170 169 167 167 167 166 167 167 167 166 165 166 168 166 164 163 162 161 158 152 150 149 148 146 143 139 135 132 129 125 122 117 114 110 105 101 94 86 80 75 70
170 170 168 168 168 167 167 168 168 168 167 166 168 169 167 166 165 163 161 157 154 151 150 150 147 144 141 137 134 131 127 123 119 115 111 106 101 95 86 79 73 69
168 168 168 168 167 167 169 169 169 169 168 168 169 170 169 167 166 164 160 157 155 153 152 151 149 146 144 141 137 134 130 126 122 117 114 109 103 96 88 81 75 69
166 167 167 168 168 169 170 169 169 169 169 169 170 171 169 167 166 164 161 159 156 155 154 153 151 148 146 143 141 139 135 130 126 121 117 112 105 99 92 83 77 70
165 166 167 167 169 169 169 169 169 169 169 170 170 170 169 167 166 164 163 161 158 156 156 155 153 150 147 145 144 143 139 134 130 126 121 115 106 101 95 87 78 70
165 165 165 167 168 168 168 169 170 170 170 171 170 170 168 166 166 165 164 162 159 158 157 156 156 153 149 148 147 147 146 140 133 130 123 115 110 103 96 89 79 69
165 164 164 166 167 168 169 170 170 170 171 171 170 169 167 166 166 164 162 160 158 158 158 158 157 155 153 152 151 153 153 145 137 132 125 118 116 108 94 85 78 71
164 164 164 166 167 169 169 170 171 171 170 171 170 169 167 166 165 162 158 157 157 156 157 158 158 156 156 156 156 158 158 151 143 137 130 126 122 111 94 81 73 70
165 165 165 166 168 169 170 170 171 171 171 171 170 168 167 166 164 161 157 156 157 155 155 156 156 155 157 159 161 162 160 155 147 139 133 131 126 113 95 79 68 64
167 167 166 168 168 168 169 169 171 171 171 171 170 168 168 168 166 163 160 160 160 158 157 157 156 155 157 161 164 165 163 156 147 139 135 133 129 119 101 81 67 62
170 171 169 169 168 167 167 168 171 172 171 172 171 170 170 171 171 169 167 168 168 167 165 163 161 160 160 162 166 168 167 161 152 146 141 138 134 128 117 98 73 62
175 177 173 170 169 168 168 170 171 171 171 172 173 172 172 174 176 176 176 177 177 178 177 174 172 171 168 166 168 172 174 169 162 157 151 146 142 138 139 134 87 61
178 179 176 174 173 172 172 172 172 171 171 173 175 175 176 178 179 180 183 185 185 186 187 186 185 183 181 178 175 175 179 178 173 168 162 159 155 152 159 162 112 58
178 177 177 176 174 172 172 172 172 172 173 175 178 178 180 182 181 180 185 190 191 192 193 194 195 193 191 190 186 182 183 185 184 179 174 171 168 169 176 176 141 68
Height
821 823 823 825 829 832 835 837 839 841 842 843 845 845 846 847 848 849 850 851 852 853 854 855 855 855 855 855 856 856 857 858 858 859 859 859 860 860 860 861 862 863
822 823 823 826 831 833 835 837 839 841 842 843 844 845 847 848 849 850 851 852 853 854 855 856 856 856 856 857 857 858 858 859 859 860 861 861 862 862 862 863 864 865
822 823 824 828 831 833 836 837 839 841 842 843 845 846 847 848 849 850 852 853 854 855 856 856 857 857 858 858 859 859 860 860 861 862 863 863 863 864 864 865 866 867
822 824 826 829 831 833 835 837 839 840 841 843 845 846 848 849 850 851 853 854 855 856 857 857 858 858 859 859 860 860 861 862 863 864 864 864 865 866 867 868 868 868
822 825 828 831 832 834 835 836 838 840 841 843 845 847 848 849 851 852 854 855 856 857 858 858 859 859 860 861 861 862 863 864 865 865 866 866 867 868 869 870 870 869
822 826 829 831 833 834 835 836 838 839 841 843 845 847 849 850 852 853 854 856 857 858 858 859 860 860 861 862 863 864 865 865 866 867 867 868 869 870 870 871 871 870
822 827 830 832 833 834 835 836 838 839 841 843 845 847 849 851 852 854 855 856 857 858 859 860 860 861 862 863 864 865 866 867 868 868 869 870 871 871 871 871 872 872
823 827 830 832 833 834 835 837 838 839 841 843 845 847 850 851 852 854 856 857 858 859 860 860 861 862 863 864 865 866 867 868 869 870 871 871 872 872 872 872 872 873
823 826 829 831 832 834 835 836 838 840 842 843 845 848 850 852 853 854 856 857 858 859 860 861 862 863 864 865 866 867 868 869 870 871 872 872 873 873 873 874 874 874
823 825 828 830 832 833 835 836 838 840 842 844 846 848 850 852 853 855 856 857 858 859 860 862 863 864 865 866 867 868 869 870 871 872 873 873 873 874 874 875 874 875
822 825 827 829 831 833 834 836 838 840 842 844 846 848 850 852 854 856 857 858 859 860 861 862 863 865 866 867 868 869 870 871 872 873 873 874 874 875 875 875 875 875
822 824 826 827 830 831 833 836 838 840 842 845 847 849 850 852 854 856 857 858 859 860 861 863 864 866 867 868 869 870 871 872 873 874 874 875 875 875 876 876 876 876
820 822 824 826 829 831 833 836 838 840 842 845 847 849 850 852 854 856 857 858 859 860 862 863 865 866 868 869 870 871 873 873 874 874 875 875 876 876 876 876 876 877
819 821 823 826 828 830 833 835 838 840 843 845 847 848 850 852 854 856 857 858 859 860 862 864 865 867 868 870 871 872 874 874 875 875 876 876 877 877 877 877 877 877
818 821 823 826 828 830 833 835 838 840 842 844 846 848 850 852 854 856 857 858 860 861 863 864 866 867 869 870 871 873 874 875 876 876 877 877 877 878 878 878 878 878
818 820 823 825 828 830 832 835 837 839 841 844 845 847 849 851 854 855 857 858 860 861 863 865 866 868 869 870 872 873 875 876 876 877 877 878 878 878 879 879 879 879
818 820 823 825 827 830 832 834 837 839 841 843 845 847 849 851 853 855 857 858 860 862 864 865 867 868 870 871 872 874 875 876 877 878 878 878 879 879 880 880 880 879
818 820 822 825 827 829 832 834 836 839 841 843 845 847 849 851 853 855 857 859 861 863 865 866 868 869 870 872 873 874 876 877 878 878 878 879 879 880 880 880 880 880
817 820 822 825 827 829 832 834 836 839 841 843 845 847 850 852 854 856 857 859 861 863 865 867 868 870 871 872 873 875 876 877 878 879 879 879 880 880 880 880 880 880
817 819 822 824 827 830 832 834 837 839 841 843 845 848 850 852 855 857 859 861 862 864 866 867 869 870 871 872 874 875 877 878 878 879 879 880 880 880 880 880 880 880
816 819 821 824 827 830 832 834 836 838 840 843 845 848 851 853 855 858 860 862 864 865 867 868 869 870 871 873 874 875 877 878 879 879 880 880 880 880 880 880 880 879
816 818 821 824 827 830 832 834 836 838 840 842 844 848 851 854 857 859 861 863 865 867 868 869 870 871 872 873 874 876 877 878 879 880 880 880 880 880 880 880 880 880
816 818 821 823 826 829 832 834 836 837 839 841 844 846 849 853 857 859 862 864 866 868 869 870 871 872 872 873 874 875 877 878 879 880 880 880 880 880 880 880 880 879
814 817 820 822 825 828 830 833 835 837 839 841 843 846 848 852 855 859 862 864 866 868 869 870 871 872 873 874 874 875 877 878 879 880 880 880 880 880 880 880 880 879
811 814 817 821 823 826 829 831 833 836 838 841 844 846 848 851 854 857 861 864 865 867 869 870 871 872 873 874 874 875 876 877 878 879 880 880 880 880 880 880 880 879
810 813 816 819 822 825 829 831 833 836 838 840 842 844 846 849 850 852 858 862 865 866 868 870 871 872 873 873 874 875 876 877 878 879 879 879 880 880 880 880 879 878